Location: Alth�tten
(48.9106°N, 14.0861°E)
Time: 19:43:37
(UTC+00:00)

Daily predictions for brighter satellites

Satellite Brightness Start Highest point End
(mag) Time Altitude Azimuth Time Altitude Azimuth Time Altitude Azimuth
Gbstr 26 Del rocket 4.5 18:52:38 10° WSW 19:00:43 84° SSE 19:07:49 10° ENE
USA 306 4.1 19:00:08 10° WNW 19:04:12 41° N 19:08:15 10° ENE
MOS 1 4.4 19:03:16 10° SSE 19:08:56 88° WSW 19:14:40 10° NNW
Cosmos 1782 4.5 19:08:24 10° SE 19:11:03 17° E 19:13:41 10° NE
MOS 1-B Rocket 4.5 19:03:45 10° NNE 19:11:38 80° ESE 19:18:15 10° SSW
SJ-6B 4.1 19:16:28 10° S 19:20:09 41° W 19:23:56 10° NNW
Cosmos 1151 Rocket 4.2 19:21:32 10° SE 19:25:08 26° E 19:28:46 10° NNE
Cosmos 2278 Rocket 4.0 19:24:01 10° ESE 19:26:23 13° E 19:28:46 10° ENE
Terra 3.7 19:24:07 10° E 19:27:14 18° ENE 19:30:20 10° NNE
USA 290 2.5 19:24:09 10° NNW 19:27:22 55° ENE 19:30:10 13° SE
Cosmos 1602 4.5 19:24:21 10° N 19:27:57 36° ENE 19:31:09 12° SE
Meteor 1-25 Rocket 4.4 19:22:42 10° N 19:28:32 64° ENE 19:34:20 10° SSE
USA 307 4.0 19:25:32 10° WNW 19:29:37 42° N 19:33:43 10° ENE
Ariane Rocket 3.5 19:24:49 10° S 19:29:48 61° WSW 19:34:51 10° NNW
CREW DRAGON DEMO-1 DEB 3.6 19:28:03 10° WNW 19:30:36 42° N 19:33:10 10° ENE
Cosmos 2263 Rocket 4.2 19:28:32 10° WSW 19:33:31 32° NW 19:38:33 10° NNE
CZ-2C R/B 4.2 19:30:01 10° NNE 19:34:14 40° E 19:38:29 10° SSE
Cosmos 1606 3.3 19:32:03 10° SSW 19:35:46 60° WNW 19:39:32 10° N
Cosmos 1844 Rocket 2.6 19:32:27 10° SSW 19:38:00 79° ESE 19:43:38 10° NNE
SPOT 1/Viking Rocket 3.8 19:36:09 11° SSE 19:41:00 59° ENE 19:46:08 10° N
SL-4 R/B 3.4 19:38:03 10° W 19:41:58 31° SW 19:45:35 12° SSE
MetOp-B 4.2 19:36:57 10° SSE 19:42:17 75° ENE 19:47:39 10° NNW
Cosmos 1805 Rocket 3.8 19:38:03 10° NNW 19:42:22 68° W 19:46:42 10° S
USA 308 4.0 19:39:03 10° WNW 19:43:10 44° N 19:47:17 10° E
X-37B 1.2 19:42:58 10° WSW 19:45:59 39° S 19:47:53 19° SE
ARIANE 5 R/B 3.2 19:43:07 15° SE 19:46:24 42° ENE 19:50:31 10° N
Cosmos 1354 Rocket 4.3 19:41:38 10° S 19:46:37 48° ESE 19:51:40 10° NNE
Cosmos 1633 Rocket 3.2 19:46:32 10° N 19:50:53 58° ENE 19:54:17 16° SSE
Cosmos 1745 Rocket 4.2 19:45:07 10° NNW 19:51:19 73° W 19:57:26 10° S
Cosmos 1709 Rocket 4.0 19:48:04 10° N 19:54:13 74° E 19:59:47 13° SSE
SPOT 3 Rocket 3.8 19:49:25 10° S 19:54:34 71° WSW 19:59:44 10° NNW
Cosmos 1437 3.7 19:54:17 21° ESE 19:54:54 23° E 19:57:15 10° NE
Landsat 7 4.0 19:52:36 10° S 19:57:21 74° WSW 20:02:09 10° NNW
Cosmos 1812 4.0 19:56:30 19° ESE 19:58:00 24° E 20:01:08 10° NE
Cosmos 1844 3.7 19:52:30 10° SSW 19:58:15 90° SSW 20:03:57 10° NNE
Cosmos 968 Rocket 4.1 19:53:50 10° SW 19:59:01 60° WNW 20:04:13 10° NNE
BREEZE-M DEB (TANK) 4.4 19:55:30 10° W 19:59:44 51° SSW 20:06:55 15° ESE
Cosmos 1470 Rocket 4.1 19:55:43 10° N 20:00:01 43° ENE 20:02:47 20° SE
ATLAS 5 CENTAUR R/B 2.4 19:55:09 10° NW 20:00:41 80° SW 20:05:41 18° SE
NOSS 3-3 (A) 4.2 19:57:45 10° S 20:03:07 43° ESE 20:09:10 10° NE
NOSS 3-3 (C) 4.2 19:57:51 10° S 20:03:13 42° ESE 20:09:16 10° NE
Cosmos 1328 Rocket 3.8 19:59:49 15° SSE 20:03:16 50° E 20:07:33 10° NNE
ATLAS 2AS CENTAUR R/B 4.1 19:58:45 10° NW 20:05:39 35° NNE 20:12:06 10° E
BREEZE M DEB (TANK) 4.5 20:01:31 10° W 20:05:52 90° NNW 20:22:24 10° E
IGS 5A 4.3 20:04:40 10° S 20:08:40 47° W 20:12:42 10° NNW
Meteor 1-26 Rocket 4.2 20:03:21 10° S 20:09:04 75° E 20:14:37 10° NNE
CARTOSAT-1 3.6 20:07:01 21° SSE 20:09:51 65° ENE 20:14:09 10° N
Cosmos 1833 Rocket 3.1 20:04:40 10° NNW 20:10:12 51° NE 20:14:00 20° SE
Cosmos 2315 Rocket 4.0 20:05:22 10° S 20:11:41 75° E 20:18:05 10° NNE
Meteor 1-14 Rocket 4.3 20:06:08 10° N 20:12:03 70° ENE 20:16:14 19° SSE
CRYOSAT 2 4.4 20:07:54 14° S 20:12:09 90° NE 20:17:05 10° N
BREEZE-M R/B 1.6 20:11:40 10° WSW 20:14:06 59° SSE 20:15:12 27° E
Cosmos 1933 Rocket 4.2 20:10:28 10° N 20:14:35 39° ENE 20:16:40 24° SE
Cosmos 1666 3.6 20:12:34 10° N 20:15:59 32° ENE 20:17:20 24° ESE
Cosmos 1666 Rocket 3.9 20:12:06 10° NNW 20:16:30 66° W 20:19:58 15° S
USA 215 4.3 20:11:32 10° ENE 20:17:40 45° N 20:23:49 10° WNW
Cosmos 1538 Rocket 4.5 20:15:11 10° NNW 20:20:26 51° ENE 20:23:35 23° SE
Cosmos 1933 4.4 20:19:01 10° SSW 20:22:55 46° WNW 20:26:50 10° N
USA 245 2.9 20:23:48 32° SW 20:24:26 41° W 20:26:35 10° NNW
USA 305 3.4 20:21:14 10° WNW 20:25:27 56° NNE 20:28:37 17° E
Iridium 4 Rocket 4.1 20:22:03 22° SSE 20:25:27 49° E 20:31:08 10° NNE
Cosmos 1242 Rocket 3.6 20:25:03 10° SSW 20:28:29 43° WNW 20:31:56 10° N
BREEZE M DEB (TANK) 1.4 20:29:25 10° W 20:33:37 81° S 20:34:07 52° ESE
Cosmos 773 Rocket 4.1 20:28:32 10° NNW 20:33:51 75° WSW 20:37:01 25° SSE
Resurs 01 Rocket 3.5 20:30:43 10° SSW 20:34:24 25° W 20:38:06 10° NW
Spot 2 Rocket 3.8 20:34:12 20° S 20:37:43 63° WSW 20:42:45 10° NNW
SJ 16-02 2.1 20:38:19 31° SE 20:39:14 34° ESE 20:43:14 10° NE
COSMOS 2406 3.2 20:34:57 10° NNW 20:40:39 82° ENE 20:43:43 29° SSE
Cosmos 2228 Rocket 4.0 20:40:06 28° ESE 20:41:06 31° E 20:45:03 10° NNE
Cosmos 2082 Rocket 2.7 20:37:58 10° NNW 20:43:27 49° NE 20:46:29 25° ESE
Meteor 2-6 Rocket 4.1 20:41:14 24° S 20:44:29 67° E 20:49:57 10° NNE
USA 306 3.2 20:40:22 10° WNW 20:44:38 65° NNE 20:47:01 25° E
Cosmos 1500 3.6 20:41:47 10° NNW 20:45:29 57° W 20:47:10 29° SSW
CZ-4C R/B 3.0 20:38:58 10° NW 20:46:07 85° SW 20:51:18 26° SE
Cosmos 1782 3.8 20:43:16 11° SSW 20:47:00 45° WNW 20:50:51 10° N
Gbstr 26 Del rocket 4.5 20:40:44 10° W 20:48:29 70° N 20:54:59 10° E
ERS-1 Rocket 3.2 20:50:52 26° S 20:53:39 67° WSW 20:58:41 10° NNW
deb Kosmos-1763 3.9 20:51:06 10° NNW 20:54:39 76° ENE 20:55:19 55° SE
SL-24 DEB 4.4 20:53:26 36° SE 20:55:03 58° E 20:59:35 10° N
SPOT 5 3.2 20:52:52 27° S 20:55:38 67° WSW 21:00:53 10° NNW
H-2A R/B 3.4 20:52:16 10° NNE 20:56:28 66° ESE 20:57:49 40° S
Meteor 1-11 Rocket 3.9 20:53:58 10° N 20:59:57 68° ENE 21:02:44 33° SSE
Cosmos 1271 Rocket 2.8 21:00:22 48° SSE 21:01:13 62° E 21:05:12 10° NNE
Cosmos 1777 Rocket 4.0 20:58:39 16° SSW 21:02:52 85° WNW 21:08:07 10° NNE
Terra 1.9 21:02:22 34° S 21:04:26 74° WSW 21:09:13 10° NNW
CREW DRAGON DEMO-1 DEB 3.2 21:02:30 10° WNW 21:04:38 52° NW 21:04:38 52° NW
Cosmos 2278 Rocket 2.1 21:05:44 22° SSW 21:09:29 76° ESE 21:15:10 10° NNE
USA 307 2.9 21:05:41 10° WNW 21:09:59 81° NNE 21:11:26 41° ESE
Cosmos 1340 Rocket 3.6 21:09:35 10° N 21:13:26 38° ENE 21:14:05 35° E
Cosmos 923 Rocket 4.2 21:08:22 10° NNW 21:13:35 62° ENE 21:15:32 37° SE
Cosmos 1898 Rocket 4.5 21:17:25 29° ESE 21:17:50 29° E 21:22:23 10° NE
Cosmos 1515 Rocket 4.4 21:17:35 22° SW 21:20:10 48° WNW 21:24:28 10° N
Cosmos 1544 3.5 21:17:20 10° N 21:20:51 47° ENE 21:20:56 47° E
Cosmos 2369 Rocket 4.3 21:21:42 10° E 21:21:42 10° E 21:22:12 10° E
X-37B 3.2 21:19:44 10° WSW 21:20:10 12° WSW 21:20:10 12° WSW
Cosmos 2084 3.7 21:18:28 10° SW 21:22:36 67° NW 21:26:52 10° NE
Cosmos 1869 Rocket 3.4 21:18:37 10° N 21:22:58 85° E 21:23:54 55° SSE
ARIANE 5 R/B 4.5 21:20:39 15° SW 21:23:03 23° W 21:26:30 10° NW
Cosmos 1536 2.7 21:19:09 10° N 21:23:13 75° E 21:23:48 61° SE
USA 308 2.8 21:19:09 10° WNW 21:23:28 88° SW 21:24:24 55° ESE
Meteor 1-10 Rocket 4.3 21:22:59 27° SSW 21:26:05 76° WNW 21:31:46 10° N
Cosmos 2154 Rocket 4.0 21:23:53 10° N 21:30:16 84° W 21:33:03 36° S
Cosmos 1943 Rocket 3.4 21:30:26 24° ESE 21:30:29 24° ESE 21:34:50 10° NE
Cosmos 1812 4.4 21:31:31 18° WSW 21:33:39 29° WNW 21:37:04 10° N
ALOS 2 3.7 21:38:42 30° E 21:39:37 33° ENE 21:43:33 10° N
Cosmos 44 4.0 21:34:45 10° NNW 21:40:08 54° NE 21:42:24 32° ESE
Cosmos 990 Rocket 4.1 21:40:01 48° SE 21:40:54 54° ESE 21:46:02 10° NNE
Cosmos 1707 Rocket 3.6 21:42:54 56° ESE 21:43:13 57° E 21:47:32 10° NNE
NOSS 3-4 (A) 3.9 21:36:51 10° NW 21:43:47 72° SW 21:47:02 37° SSE
NOSS 3-4 (C) 3.8 21:36:58 10° NW 21:43:54 73° SW 21:47:09 37° SSE
ATLAS 5 CENTAUR R/B 4.2 21:40:57 10° WNW 21:44:53 18° WSW 21:47:13 15° SW
Cosmos 962 Rocket 4.4 21:43:32 10° N 21:49:43 83° E 21:51:48 44° SSE
Cosmos 2112 Rocket 4.0 21:47:03 10° NNW 21:52:27 84° ENE 21:53:50 51° SSE
Cosmos 1833 Rocket 3.9 21:49:01 10° NW 21:53:53 30° WSW 21:55:42 25° SW
SL-24 R/B - RUBIN 2 4.1 21:49:28 10° NW 21:55:05 70° NE 21:56:38 44° ESE
Nadezhda 1 Rocket 4.2 21:51:52 30° SSW 21:55:07 67° WNW 22:01:22 10° N
Cosmos 1238 Rocket 3.9 21:49:39 10° N 21:56:05 69° ENE 21:57:51 46° SE
Cosmos 1743 2.6 21:53:02 10° N 21:56:52 85° WNW 21:56:52 85° WNW
ATLAS 2AS CENTAUR R/B 2.7 21:50:04 10° NW 21:57:33 89° ENE 22:00:31 38° SE
SeaSat 1 4.2 21:55:51 10° ENE 21:58:33 18° E 21:58:33 18° E
USA 215 3.4 21:55:02 17° ESE 22:00:13 71° NNE 22:06:44 10° NW
BREEZE-M DEB (TANK) 3.6 21:58:03 10° W 22:03:44 47° N 22:04:40 32° NE
Cosmos 2297 3.8 22:03:58 50° SSE 22:04:54 56° ESE 22:10:29 10° NE
USA 305 3.5 22:01:17 10° WNW 22:04:41 42° WSW 22:04:41 42° WSW
Cosmos 2181 Rocket 4.0 22:07:22 46° SSE 22:09:06 65° E 22:15:11 10° NNE
Cosmos 1733 Rocket 2.9 22:11:29 10° NNW 22:15:50 81° W 22:16:02 78° SW
SJ 16-02 3.0 22:15:14 18° WSW 22:17:49 30° WNW 22:21:46 10° N
Cosmos 1680 Rocket 3.9 22:15:22 10° NNW 22:20:32 52° WSW 22:21:27 46° SW
Cosmos 2341 Rocket 4.1 22:14:40 10° NNW 22:21:01 68° W 22:23:08 43° SSW
Cosmos 2366 rocket 3.9 22:16:05 10° N 22:22:18 83° E 22:24:07 49° SSE
USA 306 4.2 22:20:30 10° WNW 22:23:05 28° W 22:23:05 28° W
Cosmos 1937 Rocket 3.3 22:24:06 63° SSE 22:24:48 74° ESE 22:29:59 10° NNE
Cosmos 1818 3.6 22:20:41 10° NW 22:26:12 80° NE 22:27:40 50° SE
Thor Agena Rocket 4.2 22:22:21 10° NNE 22:27:16 40° E 22:27:48 39° ESE
Cosmos 2082 Rocket 3.2 22:22:25 10° NW 22:27:19 31° WSW 22:28:19 30° SW
Cosmos 1908 Rocket 3.9 22:23:10 10° N 22:27:35 53° ENE 22:27:56 51° E
Cosmos 967 Rocket 4.4 22:27:43 50° S 22:29:18 68° ESE 22:35:34 10° NE
CZ-4C R/B 4.3 22:28:21 10° WNW 22:34:13 25° WSW 22:36:28 22° SW
Cosmos 1900 4.2 22:33:48 67° SSE 22:34:14 72° ESE 22:39:17 10° NE
Gbstr 26 Del rocket 3.9 22:28:56 10° WNW 22:36:13 88° NNE 22:40:00 24° ESE
ERBS 3.5 22:34:16 10° NW 22:37:05 41° N 22:37:05 41° N
Cosmos 858 Rocket 4.4 22:37:14 61° SSW 22:38:10 90° SSW 22:43:26 10° NNE
Nimbus 7 Rocket 4.5 22:32:22 10° NNE 22:38:13 63° ESE 22:39:29 50° SSE
Cosmos 2218 Rocket 4.0 22:34:02 10° NNW 22:40:17 73° W 22:42:05 48° SSW
Meteor 1-19 Rocket 4.0 22:40:49 57° SSW 22:41:58 82° WNW 22:47:24 10° N
Okean 1 3.9 22:46:34 48° W 22:46:37 48° WNW 22:50:32 10° N
Cosmos 489 Rocket 4.4 22:41:33 10° NNW 22:47:47 75° WSW 22:49:22 52° S
Cosmos 1461 3.6 22:53:28 48° E 22:53:28 48° E 22:57:29 10° NE
Cosmos 2278 Rocket 4.2 22:49:36 10° W 22:54:12 25° NW 22:58:49 10° N
Cosmos 1703 Rocket 3.6 22:57:17 65° E 22:57:17 65° E 23:01:39 10° NNE
Cosmos 1862 Rocket 4.1 22:57:00 45° W 22:57:22 46° WNW 23:01:34 10° N
Cosmos 1782 Rocket 3.7 22:54:33 10° N 22:58:59 61° ENE 22:59:17 60° E
Cosmos 1898 Rocket 4.3 22:57:38 31° WSW 22:59:42 46° WNW 23:04:52 10° NNE
Nadezhda 3 Rocket 4.1 23:02:11 46° SSE 23:03:53 63° E 23:10:02 10° NNE
Cosmos 1378 4.3 23:04:38 35° ENE 23:04:38 35° ENE 23:07:31 10° NNE
Cosmos 2369 Rocket 2.2 23:03:27 57° SSE 23:04:18 65° ESE 23:09:55 10° NNE
COBE Rocket 4.2 23:07:04 51° WSW 23:07:37 54° W 23:12:39 10° NNW
RESURS DK-1 2.9 23:05:19 10° NNW 23:09:25 54° NE 23:09:53 50° E
Meteor 1-13 Rocket 4.5 23:09:32 47° SE 23:10:37 55° E 23:16:01 10° NNE
Gblst 52 Del rocket 4.3 23:04:00 10° WNW 23:10:45 83° SSW 23:14:42 23° ESE
Meteor 1-12 Rocket 4.4 23:05:32 10° N 23:11:28 72° ENE 23:13:07 48° SE
Cosmos 1975 3.9 23:08:56 10° NNW 23:12:12 35° WNW 23:12:12 35° WNW
Cosmos 1943 Rocket 2.4 23:11:55 41° WSW 23:13:45 64° WNW 23:19:21 10° NNE
SL-27 R/B 3.6 23:10:37 10° N 23:13:17 38° NE 23:13:17 38° NE
Cosmos 1805 4.4 23:10:42 10° N 23:14:19 34° ENE 23:14:33 34° E
Cosmos 2084 Rocket 4.3 23:10:12 10° NW 23:13:20 39° W 23:13:20 39° W
ALOS 2 3.8 23:16:05 30° W 23:16:05 30° W 23:19:51 10° NNW
PSLV R/B 3.7 23:13:56 10° NNE 23:18:22 62° ESE 23:18:26 62° ESE
Cosmos 1867 3.9 23:18:57 46° SE 23:19:18 46° ESE 23:24:32 10° NE
Cosmos 1607 4.2 23:19:25 46° SSE 23:20:43 53° ESE 23:27:00 10° NE
Cosmos 44 4.5 23:16:27 10° NW 23:20:48 31° WSW 23:20:48 31° WSW
DNEPR-1 R/B 4.2 23:19:57 40° WSW 23:21:52 69° NW 23:26:45 10° NE
Meteor 2-4 Rocket 3.9 23:20:31 48° SW 23:22:00 67° WNW 23:27:40 10° N
Cosmos 468 4.4 23:17:34 10° NNW 23:22:54 87° WSW 23:23:50 61° SSE
Cosmos 2263 4.3 23:22:38 55° SSE 23:23:45 68° ESE 23:29:31 10° NNE
EO 1 Del DPAF 3.5 23:24:20 10° NNE 23:27:38 62° NE 23:27:38 62° NE
Cosmos 1066 Rocket 4.5 23:26:44 46° SSE 23:28:10 59° E 23:33:46 10° NNE
Okean 3 3.5 23:28:08 70° E 23:28:10 70° E 23:32:26 10° NNE
Okean 1-7 3.1 23:30:15 60° W 23:30:21 60° WNW 23:34:36 10° N
Cosmos 372 Rocket 4.3 23:30:36 44° WSW 23:31:51 56° WNW 23:36:53 10° NNE
ATLAS CENTAUR R/B 2.8 23:33:01 24° E 23:33:01 24° E 23:35:10 10° ENE
Helios 1A 3.6 23:31:38 43° E 23:32:19 48° ENE 23:36:20 10° N
Sich 1 Rocket 3.6 23:30:26 10° N 23:35:01 72° ENE 23:35:34 64° SE
Cosmos 1125 Rocket 3.6 23:35:51 54° SSE 23:36:39 61° ESE 23:41:48 10° NNE
SeaSat 1 2.4 23:32:18 10° NNE 23:37:16 77° WNW 23:38:19 55° SW
Cosmos 494 Rocket 3.8 23:34:01 10° NNW 23:39:16 85° WSW 23:40:14 60° SSE
Cosmos 1656 Rocket 3.5 23:39:04 58° S 23:40:09 78° ESE 23:45:42 10° NNE
Cosmos 2242 Rocket 4.2 23:40:22 43° W 23:40:46 44° WNW 23:45:04 10° N
USA 215 3.4 23:42:21 44° SSW 23:43:27 48° SW 23:49:45 10° WNW
Cosmos 1833 4.2 23:40:27 10° NNW 23:46:12 71° WSW 23:47:33 52° S
ATLAS 2AS CENTAUR R/B 4.0 23:42:10 10° WNW 23:47:31 23° WSW 23:47:56 23° WSW
CZ-2D R/B 3.6 23:47:14 10° NE 23:51:50 27° E 23:53:56 21° SE
Cosmos 2297 Rocket 4.3 23:48:06 10° NNW 23:52:43 25° NE 23:57:20 10° E
